星链-3946 (STARLINK-3946 )

导读 | 豆包AI

STARLINK-3946是美国SpaceX公司星链(Starlink)星座中的一颗低轨通信卫星,于2022年5月18日发射升空。它作为星链组网的批量卫星之一,运行在近地轨道,配备相控阵天线与霍尔推进系统,依托星链低轨布局优势,可提供低时延宽带互联网服务,服务全球偏远地区联网需求,助力完成全球卫星互联网星座构建,设计服役寿命约5至7年,退役后将主动离轨再入大气层焚毁。

基本信息
目录编号:
52693
目录名称:
STARLINK-3946
国际标识:
2022-053AP
轨道中心:
EARTH
卫星名称:
星链-3946
卫星全名:
星链-3946 (STARLINK-3946 )
卫星状态:
在轨 (已飞行1397 天)
发射日期:
2022-05-18 UTC
国别 :
美国 (US)
星等 :
--
轨道信息
数据来源 国际轨道数据
星历时间: 2026-03-14T20:55:45+0800
12小时前
查看轨道信息
半长轴: 6917.874km
偏心率: 0.0001331
轨道倾角: 53.217°
近地点辐角 91.643°
升交点赤经 122.353°
平近点角 268.472°
近地点: 538.816km
远地点: 540.658km
周期: 95.437分钟
每日圈数: 15.088421
详细信息
固有亮度:
5
最大亮度:
2.5
卫星平台:
Starlink v1.5
覆盖范围:
全球
运营商:
太空探索技术公司
运营商所在国:
美国
制造商(研发单位):
太空探索技术公司
制造商所在国:
美国
使用方式:
暂无
卫星简介
星链(Starlink)计划是由太空探索技术公司(SpaceX)提出的一个巨型低轨卫星互联网星座项目,计划在2019年至2024年间在太空搭建由约1.2万颗卫星组成的“星链”网络,其中1584颗将部署在地球上空550千米处的近地轨道,并从2020年开始工作。该卫星仍在工作。
2D轨道图
3D轨道图
轨道高度分析图
轨道倾角分析图
轨道综合分析图
查看轨道综合分析图